�������l�o���
Date,Time,MP-1(��Sv/h),MP-2(��Sv/h),MP-3(��Sv/h),MP-4(��Sv/h),MP-5(��Sv/h),MP-6(��Sv/h),MP-7(��Sv/h),MP-8(��Sv/h),����,����(m/s),���J
2022/01/26,00:00,0.589,0.882,0.559,1.084,0.760,0.352,0.612,0.581,��쐼,2.3,��
2022/01/26,00:10,0.588,0.881,0.559,1.083,0.762,0.351,0.612,0.581,��쐼,2.2,��
2022/01/26,00:20,0.588,0.881,0.558,1.083,0.759,0.352,0.612,0.581,�쐼,2.3,��
2022/01/26,00:30,0.587,0.883,0.559,1.086,0.760,0.354,0.613,0.582,�쐼,2.9,��
2022/01/26,00:40,0.588,0.882,0.559,1.085,0.758,0.355,0.613,0.581,��쐼,3.0,��
2022/01/26,00:50,0.588,0.881,0.557,1.082,0.758,0.352,0.613,0.582,�쐼,2.6,��
2022/01/26,01:00,0.589,0.880,0.558,1.085,0.759,0.352,0.614,0.582,���쐼,2.0,��
2022/01/26,01:10,0.588,0.880,0.556,1.085,0.760,0.353,0.613,0.582,�쐼,1.7,��
2022/01/26,01:20,0.588,0.880,0.559,1.084,0.759,0.352,0.613,0.581,�쐼,1.5,��
2022/01/26,01:30,0.588,0.881,0.559,1.084,0.759,0.350,0.613,0.583,��쐼,1.5,��
2022/01/26,01:40,0.587,0.881,0.557,1.085,0.757,0.352,0.611,0.582,��쐼,1.5,��
2022/01/26,01:50,0.588,0.883,0.559,1.084,0.759,0.352,0.611,0.582,��쐼,1.4,��
2022/01/26,02:00,0.587,0.879,0.559,1.083,0.758,0.352,0.615,0.580,��쐼,1.2,��
2022/01/26,02:10,0.588,0.881,0.559,1.085,0.759,0.352,0.613,0.581,��쐼,0.9,��
2022/01/26,02:20,0.591,0.882,0.559,1.085,0.758,0.351,0.615,0.583,��,1.1,��
2022/01/26,02:30,0.588,0.883,0.558,1.086,0.760,0.351,0.615,0.581,��,1.1,��
2022/01/26,02:40,0.586,0.880,0.558,1.084,0.759,0.353,0.613,0.582,-,CALM,��
2022/01/26,02:50,0.588,0.884,0.559,1.087,0.761,0.352,0.613,0.580,�k�k��,1.9,��
2022/01/26,03:00,0.590,0.883,0.558,1.085,0.759,0.352,0.614,0.582,�k�k��,1.7,��
2022/01/26,03:10,0.589,0.880,0.559,1.085,0.759,0.353,0.614,0.581,�k�k��,1.7,��
2022/01/26,03:20,0.588,0.882,0.560,1.084,0.760,0.354,0.614,0.581,�k�k��,1.5,��
2022/01/26,03:30,0.589,0.882,0.560,1.086,0.758,0.351,0.615,0.580,�k�k��,0.9,�L
2022/01/26,03:40,0.591,0.882,0.559,1.085,0.760,0.352,0.613,0.582,���k��,0.6,�L
2022/01/26,03:50,0.588,0.882,0.560,1.084,0.761,0.352,0.614,0.582,��,0.6,�L
2022/01/26,04:00,0.589,0.881,0.558,1.087,0.760,0.354,0.615,0.582,�쐼,0.6,�L
2022/01/26,04:10,0.589,0.882,0.560,1.085,0.760,0.353,0.613,0.584,-,CALM,�L
2022/01/26,04:20,0.590,0.882,0.559,1.086,0.761,0.353,0.614,0.581,���k��,2.0,�L
2022/01/26,04:30,0.589,0.884,0.559,1.086,0.759,0.354,0.613,0.582,�쐼,1.5,�L
2022/01/26,04:40,0.593,0.884,0.560,1.087,0.759,0.352,0.614,0.581,��쐼,0.6,�L
2022/01/26,04:50,0.591,0.885,0.563,1.086,0.760,0.354,0.614,0.582,�k�k��,1.5,�L
2022/01/26,05:00,0.589,0.884,0.560,1.088,0.763,0.355,0.614,0.582,���k��,1.9,�L
2022/01/26,05:10,0.589,0.882,0.560,1.088,0.761,0.353,0.612,0.581,���k��,1.9,�L
2022/01/26,05:20,0.590,0.882,0.559,1.085,0.761,0.354,0.614,0.582,��,2.6,�L
2022/01/26,05:30,0.590,0.881,0.559,1.084,0.759,0.354,0.613,0.582,��,1.7,�L
2022/01/26,05:40,0.589,0.879,0.560,1.085,0.757,0.352,0.613,0.579,�k��,2.5,�L
2022/01/26,05:50,0.587,0.881,0.560,1.083,0.758,0.355,0.613,0.580,�k��,2.8,�L
2022/01/26,06:00,0.589,0.880,0.559,1.085,0.757,0.353,0.613,0.581,�k�k��,3.0,�L
2022/01/26,06:10,0.588,0.876,0.560,1.084,0.754,0.354,0.613,0.581,�k��,2.5,�L
2022/01/26,06:20,0.588,0.879,0.558,1.085,0.754,0.353,0.613,0.580,�k��,3.0,�L
2022/01/26,06:30,0.588,0.875,0.557,1.083,0.753,0.353,0.612,0.579,�k�k��,3.4,�L
2022/01/26,06:40,0.586,0.878,0.557,1.081,0.753,0.353,0.611,0.580,�k�k��,3.8,�L
2022/01/26,06:50,0.587,0.874,0.556,1.082,0.752,0.354,0.611,0.580,�k��,4.0,�L
2022/01/26,07:00,0.585,0.873,0.556,1.081,0.751,0.352,0.612,0.579,�k�k��,4.6,�L
2022/01/26,07:10,0.585,0.872,0.554,1.078,0.750,0.352,0.609,0.579,�k,3.6,�L
2022/01/26,07:20,0.583,0.869,0.552,1.077,0.748,0.351,0.610,0.577,�k�k��,4.8,�L
2022/01/26,07:30,0.581,0.868,0.554,1.077,0.749,0.351,0.608,0.579,�k�k��,4.5,�L
2022/01/26,07:40,0.581,0.867,0.551,1.075,0.746,0.351,0.609,0.577,�k�k��,5.1,�L
2022/01/26,07:50,0.580,0.864,0.551,1.076,0.746,0.351,0.609,0.577,�k,6.4,�L
2022/01/26,08:00,0.580,0.861,0.551,1.072,0.743,0.352,0.608,0.578,�k�k��,6.0,�L
2022/01/26,08:10,0.578,0.862,0.550,1.072,0.742,0.351,0.607,0.577,�k,5.9,�L
2022/01/26,08:20,0.577,0.858,0.551,1.070,0.742,0.349,0.608,0.577,�k�k��,7.1,�L
2022/01/26,08:30,0.578,0.854,0.548,1.070,0.740,0.350,0.607,0.576,�k�k��,6.4,�L
2022/01/26,08:40,0.576,0.852,0.547,1.065,0.738,0.350,0.606,0.576,�k�k��,6.5,�L
2022/01/26,08:50,0.574,0.852,0.547,1.067,0.737,0.348,0.607,0.576,�k�k��,6.4,�L
2022/01/26,09:00,0.574,0.850,0.546,1.065,0.737,0.349,0.606,0.576,�k�k��,4.7,�L
2022/01/26,09:10,0.573,0.850,0.545,1.064,0.738,0.348,0.607,0.576,�k�k��,4.1,�L
2022/01/26,09:20,0.572,0.850,0.545,1.058,0.733,0.348,0.607,0.575,�k�k��,4.9,�L
2022/01/26,09:30,0.572,0.848,0.546,1.058,0.737,0.348,0.606,0.574,�k�k��,4.6,�L
2022/01/26,09:40,0.573,0.847,0.545,1.058,0.738,0.348,0.606,0.575,�k�k��,3.3,�L
2022/01/26,09:50,0.574,0.848,0.544,1.057,0.738,0.347,0.606,0.576,�k,3.9,�L
2022/01/26,10:00,0.573,0.845,0.546,1.056,0.737,0.349,0.606,0.575,�k,3.4,�L
2022/01/26,10:10,0.574,0.850,0.546,1.058,0.737,0.349,0.608,0.574,�k�k��,3.8,�L
2022/01/26,10:20,0.574,0.852,0.545,1.055,0.739,0.348,0.606,0.574,�k�k��,3.4,�L
2022/01/26,10:30,0.571,0.850,0.547,1.057,0.740,0.350,0.607,0.573,�k,3.0,��
2022/01/26,10:40,0.573,0.854,0.548,1.057,0.740,0.348,0.608,0.575,�k�k��,2.8,��
2022/01/26,10:50,0.574,0.852,0.546,1.057,0.741,0.348,0.608,0.573,�k,3.3,��
2022/01/26,11:00,0.576,0.851,0.546,1.058,0.741,0.349,0.606,0.575,�k�k��,3.1,��
2022/01/26,11:10,0.575,0.852,0.547,1.058,0.741,0.348,0.608,0.574,�k,3.0,��
2022/01/26,11:20,0.577,0.858,0.547,1.058,0.742,0.349,0.607,0.575,�k�k��,2.9,��
2022/01/26,11:30,0.576,0.857,0.549,1.056,0.741,0.348,0.608,0.575,�k,2.9,��
2022/01/26,11:40,0.575,0.857,0.550,1.059,0.742,0.349,0.607,0.575,�k,3.2,��
2022/01/26,11:50,0.577,0.856,0.547,1.059,0.743,0.348,0.606,0.575,�k�k��,3.6,��
2022/01/26,12:00,0.577,0.858,0.547,1.059,0.743,0.350,0.605,0.577,�k�k��,3.8,��
2022/01/26,12:10,0.577,0.860,0.548,1.060,0.743,0.349,0.606,0.577,�k�k��,4.3,��
2022/01/26,12:20,0.576,0.861,0.548,1.058,0.743,0.349,0.605,0.577,�k�k��,4.2,��
2022/01/26,12:30,0.576,0.859,0.549,1.059,0.743,0.349,0.605,0.576,�k�k��,4.1,��
2022/01/26,12:40,0.576,0.859,0.549,1.059,0.744,0.350,0.606,0.575,�k�k��,4.6,��
2022/01/26,12:50,0.579,0.858,0.549,1.058,0.744,0.348,0.606,0.576,�k�k��,4.6,��
2022/01/26,13:00,0.577,0.859,0.548,1.056,0.745,0.348,0.606,0.576,�k�k��,4.4,��
2022/01/26,13:10,0.577,0.857,0.547,1.060,0.746,0.349,0.605,0.576,�k�k��,4.9,��
2022/01/26,13:20,0.578,0.860,0.548,1.057,0.744,0.348,0.608,0.578,�k�k��,4.7,��
2022/01/26,13:30,0.579,0.862,0.550,1.061,0.746,0.348,0.607,0.575,�k�k��,4.6,��
2022/01/26,13:40,0.577,0.863,0.551,1.061,0.746,0.349,0.607,0.577,�k�k��,4.2,��
2022/01/26,13:50,0.579,0.862,0.550,1.059,0.745,0.349,0.608,0.575,�k�k��,4.3,��
2022/01/26,14:00,0.579,0.859,0.549,1.061,0.745,0.349,0.609,0.575,�k�k��,4.3,��
2022/01/26,14:10,0.580,0.863,0.548,1.060,0.745,0.349,0.608,0.575,�k�k��,4.2,��
2022/01/26,14:20,0.579,0.862,0.551,1.061,0.745,0.349,0.609,0.576,�k,4.2,��
2022/01/26,14:30,0.580,0.861,0.548,1.062,0.745,0.349,0.608,0.577,�k,4.3,��
2022/01/26,14:40,0.580,0.861,0.550,1.061,0.746,0.349,0.610,0.574,�k,4.0,��
2022/01/26,14:50,0.578,0.861,0.552,1.062,0.745,0.350,0.610,0.577,�k,3.2,��
2022/01/26,15:00,0.579,0.863,0.549,1.060,0.745,0.350,0.610,0.579,�k,2.9,��
2022/01/26,15:10,0.579,0.862,0.550,1.060,0.747,0.350,0.609,0.578,�k�k��,3.3,��
2022/01/26,15:20,0.579,0.862,0.550,1.062,0.746,0.349,0.609,0.576,�k�k��,3.2,��
2022/01/26,15:30,0.579,0.864,0.550,1.060,0.745,0.349,0.609,0.577,�k�k��,3.3,��
2022/01/26,15:40,0.580,0.861,0.549,1.060,0.746,0.348,0.610,0.575,�k�k��,2.3,��
2022/01/26,15:50,0.579,0.863,0.551,1.063,0.747,0.349,0.611,0.577,�k�k��,3.1,��
2022/01/26,16:00,0.578,0.863,0.549,1.061,0.746,0.350,0.609,0.576,�k,3.2,��
2022/01/26,16:10,0.577,0.863,0.551,1.062,0.748,0.349,0.609,0.576,�k�k��,3.1,��
2022/01/26,16:20,0.578,0.863,0.550,1.060,0.746,0.349,0.609,0.577,�k,2.0,��
2022/01/26,16:30,0.579,0.862,0.551,1.060,0.749,0.350,0.609,0.577,�k�k��,2.6,��
2022/01/26,16:40,0.578,0.861,0.549,1.059,0.746,0.350,0.609,0.576,�k�k��,3.7,��
2022/01/26,16:50,0.579,0.863,0.551,1.061,0.747,0.351,0.609,0.576,�k�k��,3.6,��
2022/01/26,17:00,0.578,0.864,0.549,1.061,0.745,0.351,0.611,0.577,�k,2.5,��
2022/01/26,17:10,0.579,0.864,0.550,1.061,0.746,0.349,0.607,0.577,�k,4.0,��
2022/01/26,17:20,0.579,0.864,0.548,1.060,0.747,0.349,0.609,0.577,�k,4.3,��
2022/01/26,17:30,0.578,0.862,0.551,1.061,0.748,0.347,0.609,0.576,�k,3.7,��
2022/01/26,17:40,0.578,0.864,0.550,1.063,0.744,0.349,0.609,0.577,�k�k��,2.9,��
2022/01/26,17:50,0.579,0.862,0.549,1.061,0.745,0.349,0.608,0.577,�k�k��,3.0,��
2022/01/26,18:00,0.579,0.861,0.551,1.062,0.745,0.349,0.609,0.577,�k�k��,2.6,��
2022/01/26,18:10,0.578,0.864,0.550,1.060,0.747,0.349,0.609,0.577,�k�k��,2.3,��
2022/01/26,18:20,0.580,0.864,0.549,1.064,0.746,0.348,0.608,0.577,�k�k��,2.5,��
2022/01/26,18:30,0.579,0.863,0.550,1.063,0.747,0.350,0.608,0.577,�k��,2.8,��
2022/01/26,18:40,0.578,0.863,0.551,1.062,0.745,0.348,0.609,0.577,�k��,2.3,��
2022/01/26,18:50,0.580,0.863,0.550,1.060,0.747,0.349,0.608,0.576,�k��,2.3,��
2022/01/26,19:00,0.579,0.862,0.548,1.061,0.747,0.349,0.607,0.576,���k��,2.5,��
2022/01/26,19:10,0.580,0.863,0.550,1.062,0.745,0.350,0.608,0.576,��,2.0,��
2022/01/26,19:20,0.578,0.863,0.551,1.060,0.746,0.349,0.608,0.576,���k��,2.2,��
2022/01/26,19:30,0.579,0.864,0.550,1.063,0.747,0.348,0.609,0.577,���k��,2.5,��
2022/01/26,19:40,0.579,0.864,0.551,1.064,0.744,0.349,0.610,0.575,��,2.6,�L
2022/01/26,19:50,0.579,0.864,0.551,1.062,0.748,0.351,0.609,0.578,��,0.9,�L
2022/01/26,20:00,0.579,0.864,0.552,1.060,0.746,0.350,0.607,0.577,���쐼,0.8,�L
2022/01/26,20:10,0.579,0.863,0.551,1.062,0.747,0.349,0.608,0.576,���쐼,0.8,�L
2022/01/26,20:20,0.580,0.865,0.550,1.063,0.748,0.350,0.608,0.575,��,0.8,��
2022/01/26,20:30,0.580,0.865,0.551,1.061,0.747,0.349,0.608,0.577,�k�k��,0.6,��
2022/01/26,20:40,0.581,0.865,0.549,1.062,0.747,0.349,0.609,0.576,�k�k��,0.9,��
2022/01/26,20:50,0.579,0.866,0.548,1.062,0.748,0.350,0.607,0.576,�k��,0.8,��
2022/01/26,21:00,0.580,0.862,0.550,1.063,0.747,0.351,0.609,0.575,�k�k��,1.7,��
2022/01/26,21:10,0.578,0.863,0.552,1.063,0.748,0.349,0.609,0.577,�k,2.0,��
2022/01/26,21:20,0.579,0.864,0.550,1.061,0.749,0.349,0.610,0.577,�k,1.9,��
2022/01/26,21:30,0.579,0.864,0.552,1.062,0.747,0.349,0.609,0.577,�k��,1.4,�L
2022/01/26,21:40,0.580,0.865,0.549,1.062,0.748,0.349,0.610,0.576,�k,0.9,�L
2022/01/26,21:50,0.579,0.862,0.549,1.063,0.748,0.349,0.607,0.578,-,CALM,��
2022/01/26,22:00,0.579,0.863,0.550,1.063,0.748,0.350,0.611,0.577,�쐼,3.1,��
2022/01/26,22:10,0.580,0.863,0.551,1.064,0.748,0.350,0.609,0.578,��쐼,2.8,��
2022/01/26,22:20,0.581,0.864,0.550,1.062,0.747,0.350,0.608,0.575,��쐼,2.6,��
2022/01/26,22:30,0.579,0.864,0.551,1.063,0.747,0.349,0.608,0.576,��쐼,2.6,��
2022/01/26,22:40,0.580,0.864,0.550,1.063,0.747,0.348,0.610,0.576,��,4.0,��
2022/01/26,22:50,0.580,0.864,0.551,1.063,0.747,0.350,0.609,0.577,��,4.4,��
2022/01/26,23:00,0.579,0.864,0.551,1.062,0.746,0.350,0.607,0.577,��쐼,4.0,��
2022/01/26,23:10,0.579,0.864,0.549,1.061,0.746,0.351,0.609,0.578,��쐼,2.8,��
2022/01/26,23:20,0.580,0.864,0.550,1.063,0.748,0.350,0.610,0.576,�쐼,3.7,��
2022/01/26,23:30,0.579,0.861,0.550,1.062,0.747,0.351,0.609,0.577,��쐼,3.3,��
2022/01/26,23:40,0.579,0.863,0.550,1.062,0.746,0.350,0.611,0.577,�쐼,3.7,��
2022/01/26,23:50,0.581,0.863,0.551,1.062,0.746,0.350,0.609,0.577,�쐼,4.5,��
